SL-12 DEB, 41704

Orbit data source: Space-Track

SL-12 DEB, 41704 is space debris in HEO originally from a launch on Mon, 01 Mar 2010 UTC launched from the Tyuratam Missile And Space Complex (TTMTR). Debris objects in space refer to the collection of defunct objects orbiting the Earth. Examples of debris include non-operational satellites, rocket bodies, and fragments generated from explosions, collisions, or faulty payload assembly.

Loading next visibility...
Identifier
41704, 2010-007W
Orbit
HEO
Country
Flag of CISCIS
Related business
Manufacturer
RKKE
Mission
Spacecraft
Bus & Motor
Unknown
Mass
Unknown
Launch date (UTC)
2010-03-01 (16 years ago)
Launch vehicle
Unknown
Launch site
Tyuratam Missile And Space Complex (TTMTR)
Object type
Payload
Rocket body
Debris
Shape & HBR
Unknown
Radar Cross Section
Small (<0.1 m²)

Expand to show TLE details & history
Last TLE update: 1 year ago

TLE from 1 year ago
0 SL-12 DEB
1 41704U 10007W   24191.70386788 -.00001195  00000-0 -29034-1 0  9995
2 41704  65.1010  97.7847 5402330 307.8265  14.5457  4.35437325149197
Epoch: 2024-07-09T16:53Z
TLE epoch observation values (Epoch: 2024-07-09T16:53:34.184Z)
Latitude
-0.00011°
Longitude
-83.72552°
Altitude
2,057.826 km
Speed
8.328 km/s
True Right ascension
06h 31m 08s
True Declination
0° 00' 00"
Sunlit
Object was in daylight at epoch
Visualization orbit readout
Latitude
Unknown
Longitude
Unknown
Altitude
Unknown
Speed
Unknown
Apparent Right ascension
Unknown
Apparent Declination
Unknown
Sunlit
N/A
Visualization observer readout
Local Sidereal Time
04:15:42
Azimuth
Unknown
Elevation
Unknown
Doppler factor
Unknown
Orbital elements
Apogee altitude
18,019.147 km
Perigee altitude
904.57 km
Semi-major axis
15,839.996 km
Eccentricity
0.54023
Inclination
65.101°
RAAN
97.7847°
Arg. of periapsis
307.8265°
True anomaly
52.31546°
Mean anomaly
14.5457°
Eccentric anomaly
30.04178°
Mean motion
1.08871 °/min
Orbital period
330.67 mins
BSTAR
-0.029034
Loading maneuver chart data...
Computing Atmospheric mass density...
Loading historical data...
Loading historical data...
Loading historical data...
Loading historical data...
Loading historical data...
Loading historical data...
Loading historical data...

Documentation

Showing up to 5 results
|